Terminal Aerodrome Forecast
Issued by NWS Chicago, IL

Home | Current Version | Previous Version | Text Only | Print | Product List | Glossary Off
Versions: 1 2 3 4 5 6 7 8 9 10 11 12 13 14 15 16 17 18 19 20 21 22 23 24 25 26 27 28 29

000
FTUS43 KLOT 192325
TAFRFD
TAF
KRFD 192325Z 2000/2024 09007KT 2SM -RA BR SCT015 OVC035
      TEMPO 2000/2002 1SM RA BR SCT007 OVC015
     FM200200 08007KT 1 1/2SM -RA BR OVC007
     FM200400 08007KT 1SM -SHRA BR OVC004
     FM200700 08005KT 1SM -DZ BR OVC003
      TEMPO 2010/2014 1/2SM -DZ FG OVC002
     FM201800 11006KT 4SM BR OVC007=

USA.gov is the U.S. government's official web portal to all federal, state and local government web resources and services.